COSMOS 2545 (760)

Last updated on Sun Apr 12 2026 00:03:25 GMT+0000 (Coordinated Universal Time)

1 45358U 20018A 26099.71258098 -.00000017 00000+0 00000+0 0 9999 2 45358 64.3962 314.8264 0007120 242.2304 117.7413 2.13102609 47203
UTC large
Height (km)
Speed (km/s)
/
Latitude / Longitude
Inclination (degrees)
Orbital Period (minutes)
Azimuth
Elevation
Range (km)
Doppler Factor

Next 0 passes for location: London (51.5072 / 0.1276)

Sorry there are no passes over London.
COSMOS 2545 (760)